User: anonymous   Login
Location: Azul
(36.7830°S, 59.8500°W)
Time: 21:44:03
(UTC-03:00)
Language:

CAS-4B - Orbit

View from above orbital plane
View from above orbital plane
View from above satellite
View from above satellite

Ground track
Ground track

The orbit data is extracted from the following two-line orbital elements,

1 42759U 17034B   21296.20778718  .00001263  00000-0  88635-4 0  9998
2 42759  43.0172 198.6183 0008759 250.3482 247.7014 15.10468552240463
Epoch (UTC): 23 October 2021 04:59:12
Eccentricity: 0.0008759
inclination: 43.0172°
perigee height: 529 km
apogee height: 541 km
right ascension of ascending node: 198.6183°
argument of perigee: 250.3482°
revolutions per day: 15.10468552
mean anomaly at epoch: 247.7014°
orbit number at epoch: 24046

The dashed part of the orbit path shows where the satellite is in the earth's shadow,  

DLR